Regional Weather Roundup
Issued by NWS

Home | Current Version | Previous Version | Text Only | Print | Product List | Glossary On
Versions: 1 2 3 4 5 6 7 8 9 10 11 12 13 14 15 16 17 18 19 20 21 22 23 24 25 26 27 28 29 30 31 32 33 34 35 36 37 38 39 40 41 42 43 44 45 46 47 48 49 50
000
ASUS44 KLIX 010005
RWRLA
LOUISIANA WEATHER ROUNDUP
NATIONAL WEATHER SERVICE NEW ORLEANS LA
700 PM CDT THU JUL 31 2014

NOTE: "FAIR" INDICATES FEW OR NO CLOUDS BELOW 12,000 FEET WITH NO
      SIGNIFICANT WEATHER AND/OR OBSTRUCTIONS TO VISIBILITY.
      SKY/WX - SKY CONDITION AND SIGNIFICANT WEATHER.
      TMP - AIR TEMPERATURE.    DP   - DEWPOINT TEMPERATURE.
      RH  - RELATIVE HUMIDITY.  PRES - PRESSURE.
      HX  - HEAT INDEX.         WCI  - WIND CHILL INDEX.

*  THESE STATIONS ARE NOT NWS OR FAA STATIONS AND ARE NOT UNDER
   NWS QUALITY CONTROL.

LAZ040-048-061>063-065-066-069-010100-
SOUTHEAST LOUISIANA

CITY           SKY/WX    TMP DP  RH WIND       PRES   REMARKS
N.O. AUDUBON     N/A     88  64  45 MISG        N/A
6HR MIN TEMP:  87; 6HR MAX TEMP:  94;

N.O. INTL ARPT PTSUNNY   83  61  47 N7        29.99S
6HR MIN TEMP:  83; 6HR MAX TEMP:  91;

N.O. LAKEFRONT PTSUNNY   87  59  38 CALM      29.99S
6HR MIN TEMP:  85; 6HR MAX TEMP:  89;

N.O. DOWNTOWN* FAIR      88  61  40 NE6       30.00S
6HR MIN TEMP:  88; 6HR MAX TEMP:  91;

SLIDELL        PTSUNNY   83  66  56 CALM      29.99R
6HR MIN TEMP:  83; 6HR MAX TEMP:  88;

BATON ROUGE    PTSUNNY   82  68  62 NE7       29.98S
6HR MIN TEMP:  82; 6HR MAX TEMP:  90;

BOOTHVILLE     MOCLDY    84  65  52 NE3       30.00S
6HR MIN TEMP:  83; 6HR MAX TEMP:  86;

BELLE CHASSE   PTSUNNY   84  68  58 E3        29.99S
6HR MIN TEMP:  84; 6HR MAX TEMP:  88;

BOGALUSA*      FAIR      82  67  62 NE6       30.02S
6HR MIN TEMP:  82; 6HR MAX TEMP:  87;

GALLIANO*      NOT AVBL
NEW ROADS*     FAIR      82  69  64 NE5       29.99S
6HR MIN TEMP:  82; 6HR MAX TEMP:  87;

GONZALES*      FAIR      87  72  61 NE3       29.98S
6HR MIN TEMP:  84; 6HR MAX TEMP:  89;

HAMMOND*       PTSUNNY   84  64  51 NE3       30.01S
HOUMA*         MOSUNNY   84  66  54 SE7       29.99
PORT FOURCHON* CLEAR     84  68  58 E7        30.01S

$$

LAZ041-044-053-054-010100-
SOUTHWEST LOUISIANA

CITY           SKY/WX    TMP DP  RH WIND       PRES   REMARKS
LAKE CHARLES   CLOUDY    85  73  67 S5        29.94F
6HR MIN TEMP:  85; 6HR MAX TEMP:  91;

LAFAYETTE      CLOUDY    85  74  69 CALM      29.97S
6HR MIN TEMP:  85; 6HR MAX TEMP:  90;

PATTERSON      PTSUNNY   81  75  83 SE5       30.01F
6HR MIN TEMP:  79; 6HR MAX TEMP:  90;

SALT POINT       N/A     88  73  61 VRB3      29.97S HX  95
6HR MIN TEMP:  87; 6HR MAX TEMP:  91;

NEW IBERIA     CLOUDY    85  70  60 SW5       29.98R
6HR MIN TEMP:  85; 6HR MAX TEMP:  93;

CHENAULT AIRPK PTSUNNY   84  73  70 SE6       29.96S

$$

LAZ027-028-010100-
CENTRAL LOUISIANA

CITY           SKY/WX    TMP DP  RH WIND       PRES   REMARKS
FORT POLK      CLOUDY    80  73  79 E7        29.95F
6HR MIN TEMP:  80; 6HR MAX TEMP:  84; 6HR PCP: TRACE;

ALEXANDRIA INT CLOUDY    80  71  74 E12       29.95F
6HR MIN TEMP:  80; 6HR MAX TEMP:  84; 6HR PCP: TRACE;

ALEXANDRIA     CLOUDY    80  71  74 E5        29.98F
6HR MIN TEMP:  80; 6HR MAX TEMP:  82; 6HR PCP: TRACE;


$$

LAZ001-002-010100-
NORTHWEST LOUISIANA

CITY           SKY/WX    TMP DP  RH WIND       PRES   REMARKS
SHREVEPORT     CLOUDY    73  70  90 E8        29.95S
6HR MIN TEMP:  72; 6HR MAX TEMP:  74; 6HR PCP:  0.20;

BARKSDALE AFB  LGT RAIN  72  70  93 E8        29.96S
6HR MIN TEMP:  72; 6HR MAX TEMP:  75; 6HR PCP:  0.14;

DTN SHREVEPORT LGT RAIN  72  69  90 E8        29.96R
6HR MIN TEMP:  72; 6HR MAX TEMP:  76; 6HR PCP:  0.24;


$$

LAZ014-016-010100-
NORTHEAST LOUISIANA

CITY           SKY/WX    TMP DP  RH WIND       PRES   REMARKS
MONROE         LGT RAIN  76  68  76 NE3       30.02S
6HR MIN TEMP:  76; 6HR MAX TEMP:  80; 6HR PCP: TRACE;

TALLULAH       CLOUDY    80  66  62 NE3       30.02S
6HR MIN TEMP:  79; 6HR MAX TEMP:  81;


$$



USA.gov is the U.S. government's official web portal to all federal, state and local government web resources and services.